Location: Bodham
(52.9000°N, 1.1667°E)
Time: 14:50:51
(UTC+00:00)

Cosmos 2112 Rocket - Pass Details

Date: 19 October 2025
Orbit: 753 x 782 km, 74.0° (Epoch: 13 November)

Event Time Altitude Azimuth Distance (km) Brightness Sun altitude
Rises 20:27:03 0° 221° (SW) 3,257 7.4 -32.5°
Reaches altitude 10° 20:29:30 10° 226° (SW) 2,330 6.6 -32.8°
Enters shadow 20:30:44 17° 231° (SW) 1,884 6.2 -33.0°
Exits shadow 20:42:18 - 25° (NNE) 3,270 7.4 -34.5°
